Weather in Pontianak

Indonesia     0°01′57″N   109°19′32″E
temp.,
°C
wind,
m/s
gust,
m/s
humid.,
%
clouds,
%
prec.,
mm/h
press.,
hPa
HPBL,
m
27 september, mon
mon2701:00+25s2289100 1.4 1008118
04:00+25ssw1289100 3.2 100784
07:00+24nw1294100 11.6 1009170
10:00+25ene1188100 0.1 1010244
13:00+27nne1179100 0.1 1008440
16:00+28wnw227262 0.3 1006541
19:00+26wsw1279100 0.3 1007145
22:00+25s1180100 0.0 1009128
28 september, tue
tue2801:00+24sse1184100 0.0 1008104
04:00+24se1184100 0.0 100799
07:00+25e118494 0.0 1009101
10:00+30wsw126561 0.0 1010859
13:00+30wsw336917 1.0 1007847
16:00+29wsw447143 0.4 1006807
19:00+27sw2380100 0.5 1008314
22:00+26ssw1287100 2.2 1010136
29 september, wed
wed2901:00+25sse1290100 2.9 1008125
04:00+24ese119399 0.1 100777
07:00+25e129044 0.1 1009156
10:00+31e016464 0.0 1010865
13:00+29wsw3274100 2.0 1006612
16:00+28wsw2384100 4.2 1005171
19:00+26nw1286100 11.3 1008106
22:00+26nw1185100 1.1 1009158
30 september, thu
thu3001:00+25ne0189100 3.9 100735
04:00+25ne1190100 1.4 100740
07:00+26ne1288100 2.4 1009121
10:00+28n1179100 5.7 1010252
13:00+25nnw2392100 9.1 1007219
16:00+27nw3484100 0.8 1007378
19:00+25nnw3590100 3.8 1009242
22:00+25nnw3793100 2.9 1011334
1 october, fri
fri101:00+24nnw259499 4.7 1009239
04:00+24n239498 1.7 1009197
07:00+24nne229396 2.2 1011165
10:00+29nnw237181 0.5 1011768
13:00+28w4577100 1.8 1008665
16:00+28w468062 1.4 1008773
19:00+26wsw4685100 1.8 1010476
22:00+25wsw3589100 4.6 1011361